Weather History for KELM - March, 2014

Change the Weather History Date:

Saturday, March 29, 2014

  Actual Average Record
Temperature  
Mean Temperature 40 °F -  
Max Temperature 46 °F 51 °F 82 °F (1945)
Min Temperature 35 °F 28 °F 10 °F (1959)
Degree Days  
Heating Degree Days 24    
Moisture  
Dew Point 33 °F    
Average Humidity 82    
Maximum Humidity 93    
Minimum Humidity 58    
Precipitation  
Precipitation 0.95 in - - ()
Sea Level Pressure  
Sea Level Pressure 29.98 in    
Wind  
Wind Speed 7 mph (NE)    
Max Wind Speed 14 mph    
Max Gust Speed -    
Visibility 6 miles    
Events Rain    
Averages and records for this station are not official NWS values.
T = Trace of Precipitation, MM = Missing Value Source: NWS Daily Summary

Daily Weather History Graph

Daily Weather History Graph

Search for Another Location

Airport or City:

Trip Planner

Search our weather history database for the weather conditions in past years. The results will help you decide how hot, cold, wet, or windy it might be!

Date:

Astronomy

Mar. 29, 2014 Rise Set
Actual Time 6:55 AM EDT 7:29 PM EDT
Civil Twilight 6:27 AM EDT 7:58 PM EDT
Nautical Twilight 5:54 AM EDT 8:31 PM EDT
Astronomical Twilight 5:19 AM EDT 9:05 PM EDT
Moon 6:03 AM EDT (3/29) 6:31 PM EDT (3/29)
Length of Visible Light 13h 30m
Length of Day
12h 34m
Waning Crescent, 2% of the Moon is Illuminated
Mar 29
Waning Crescent
Mar 30
New
Apr 7
First Quarter
Apr 15
Full
Apr 22
Last Quarter

Hourly Weather History & Observations

Time (EDT) Temp. Windchill Dew Point Humidity Pressure Visibility Wind Dir Wind Speed Gust Speed Precip Events Conditions
12:53 AM 42.1 °F 37.7 °F 33.1 °F 70% 30.18 in 10.0 mi NW 6.9 mph - N/A   Overcast
1:53 AM 41.0 °F 39.0 °F 33.1 °F 73% 30.20 in 10.0 mi NW 3.5 mph - N/A   Overcast
2:53 AM 39.9 °F 37.8 °F 32.0 °F 73% 30.20 in 10.0 mi WNW 3.5 mph - N/A   Overcast
3:53 AM 37.9 °F 33.5 °F 30.9 °F 76% 30.19 in 10.0 mi NE 5.8 mph - N/A   Overcast
4:53 AM 37.0 °F 31.6 °F 30.0 °F 76% 30.19 in 10.0 mi ENE 6.9 mph - N/A   Overcast
5:53 AM 37.0 °F 29.8 °F 30.0 °F 76% 30.17 in 10.0 mi NNE 10.4 mph - N/A   Overcast
6:53 AM 37.0 °F - 28.9 °F 73% 30.21 in 10.0 mi Calm Calm - N/A   Overcast
7:53 AM 37.0 °F 34.5 °F 30.0 °F 76% 30.22 in 10.0 mi East 3.5 mph - N/A   Overcast
8:53 AM 37.9 °F 33.5 °F 30.0 °F 73% 30.22 in 10.0 mi NE 5.8 mph - N/A   Overcast
9:53 AM 39.9 °F 33.9 °F 30.9 °F 70% 30.18 in 10.0 mi ENE 9.2 mph - N/A   Overcast
10:53 AM 41.0 °F 37.1 °F 30.0 °F 65% 30.17 in 10.0 mi Variable 5.8 mph - N/A   Overcast
11:53 AM 43.0 °F 40.3 °F 30.9 °F 62% 30.14 in 10.0 mi East 4.6 mph - N/A   Overcast
12:53 PM 46.0 °F 41.4 °F 32.0 °F 58% 30.10 in 10.0 mi NNE 9.2 mph - N/A   Overcast
1:53 PM 46.0 °F 41.9 °F 32.0 °F 58% 30.06 in 10.0 mi NE 8.1 mph - N/A   Overcast
2:53 PM 44.1 °F 37.7 °F 32.0 °F 63% 30.04 in 10.0 mi North 12.7 mph - N/A   Overcast
3:53 PM 41.0 °F 36.4 °F 35.1 °F 79% 30.01 in 9.0 mi NNE 6.9 mph - 0.02 in Rain Light Rain
4:36 PM 39.2 °F 33.6 °F 35.6 °F 87% 29.96 in 7.0 mi NNE 8.1 mph - 0.00 in Rain Light Rain
4:45 PM 39.2 °F 33.0 °F 35.6 °F 87% 29.96 in 6.0 mi NNE 9.2 mph - 0.00 in Rain Light Rain
4:53 PM 39.9 °F 34.5 °F 35.1 °F 83% 29.98 in 4.0 mi NE 8.1 mph - 0.01 in Rain Light Rain
5:03 PM 39.2 °F 35.9 °F 35.6 °F 87% 29.96 in 2.0 mi NNE 4.6 mph - 0.01 in Rain Light Rain
5:14 PM 39.2 °F 33.6 °F 35.6 °F 87% 29.95 in 3.0 mi NE 8.1 mph - 0.02 in Rain Light Rain
5:42 PM 39.2 °F 35.9 °F 35.6 °F 87% 29.93 in 2.0 mi NE 4.6 mph - 0.04 in Rain Rain
5:51 PM 37.4 °F 32.1 °F 35.6 °F 93% 29.93 in 1.8 mi NE 6.9 mph - 0.05 in Rain Light Rain
5:53 PM 37.9 °F 32.1 °F 35.1 °F 89% 29.96 in 2.0 mi ENE 8.1 mph - 0.05 in Rain Light Rain
5:59 PM 37.4 °F 31.4 °F 35.6 °F 93% 29.92 in 3.0 mi NE 8.1 mph - 0.00 in Rain Light Rain
6:13 PM 37.4 °F 30.8 °F 35.6 °F 93% 29.92 in 2.5 mi NE 9.2 mph - 0.00 in Rain Light Rain
6:34 PM 37.4 °F 32.1 °F 33.8 °F 87% 29.91 in 2.5 mi ENE 6.9 mph - 0.02 in Rain Rain
6:53 PM 37.9 °F 31.5 °F 34.0 °F 86% 29.93 in 1.5 mi ENE 9.2 mph - 0.09 in Rain Rain
7:05 PM 37.4 °F 30.8 °F 35.6 °F 93% 29.89 in 2.0 mi ENE 9.2 mph - 0.04 in Rain Heavy Rain
7:16 PM 37.4 °F 30.3 °F 33.8 °F 87% 29.89 in 4.0 mi ENE 10.4 mph - 0.06 in Rain Rain
7:27 PM 37.4 °F 30.8 °F 33.8 °F 87% 29.89 in 5.0 mi ENE 9.2 mph - 0.07 in Rain Rain
7:53 PM 37.0 °F 29.8 °F 33.1 °F 86% 29.90 in 5.0 mi ENE 10.4 mph - 0.11 in Rain Rain
8:18 PM 35.6 °F 28.0 °F 33.8 °F 93% 29.86 in 5.0 mi ENE 10.4 mph - 0.06 in Rain Heavy Rain
8:53 PM 36.0 °F 28.0 °F 32.0 °F 86% 29.87 in 5.0 mi ENE 11.5 mph - 0.11 in Rain Rain
9:51 PM 35.6 °F 28.0 °F 33.8 °F 93% 29.80 in 2.5 mi East 10.4 mph - 0.19 in Rain Heavy Rain
9:53 PM 36.0 °F 29.6 °F 33.1 °F 89% 29.83 in 3.0 mi East 8.1 mph - 0.19 in Rain Heavy Rain
10:20 PM 35.6 °F 29.9 °F 33.8 °F 93% 29.81 in 4.0 mi Variable 6.9 mph - 0.06 in Rain Light Rain
10:53 PM 37.0 °F 32.4 °F 33.1 °F 86% 29.83 in 3.0 mi Variable 5.8 mph - 0.12 in Rain Rain
11:01 PM 35.6 °F - 33.8 °F 93% 29.82 in 2.5 mi Calm Calm - 0.04 in Rain Heavy Rain
11:09 PM 37.4 °F - 33.8 °F 87% 29.82 in 3.0 mi Calm Calm - 0.08 in Rain Heavy Rain
11:17 PM 37.4 °F 31.4 °F 33.8 °F 87% 29.81 in 2.5 mi NE 8.1 mph - 0.12 in Rain Heavy Rain
11:21 PM 37.4 °F 31.4 °F 33.8 °F 87% 29.81 in 3.0 mi ENE 8.1 mph - 0.13 in Rain Heavy Rain
11:36 PM 35.6 °F 26.6 °F 32.0 °F 87% 29.78 in 4.0 mi ENE 13.8 mph - 0.20 in Rain Heavy Rain
11:53 PM 36.0 °F 28.0 °F 32.0 °F 86% 29.79 in 5.0 mi ENE 11.5 mph - 0.25 in Rain Rain